QPF
0.05 0.04 0.04 0.04 0.04 0.04 0.04 0.03 0.02 0.02 0.02 0.04 0.04 0.03 0.02 0.03 0.05 0.03 0.02 0.03 0.04 0.04 0.05 0.06 0.05 0.04 0.03 0.04 0.04 0.04 0.04 0.04 0.04 0.04 0.05 0.07 0.07 0.07
0.03 0.04 0.04 0.03 0.04 0.05 0.05 0.04 0.03 0.03 0.02 0.03 0.03 0.03 0.02 0.03 0.06 0.05 0.03 0.03 0.02 0.02 0.03 0.05 0.06 0.05 0.04 0.04 0.04 0.04 0.03 0.04 0.03 0.03 0.02 0.03 0.04 0.04
0.01 0.02 0.03 0.03 0.03 0.04 0.04 0.04 0.04 0.03 0.03 0.03 0.03 0.03 0.02 0.02 0.03 0.05 0.04 0.02 0.01 0.01 0.01 0.02 0.02 0.03 0.03 0.03 0.02 0.02 0.03 0.03 0.04 0.03 0.03 0.02 0.02 0.02
0.01 0.01 0.01 0.02 0.02 0.05 0.05 0.04 0.04 0.04 0.04 0.05 0.04 0.03 0.02 0.02 0.02 0.02 0.02 0.02 0.01 0.01 0.01 0.01 0.01 0.02 0.02 0.02 0.02 0.02 0.02 0.03 0.03 0.03 0.02 0.02 0.02 0.02
0.01 0.01 0.01 0.02 0.03 0.04 0.04 0.02 0.02 0.02 0.03 0.06 0.05 0.03 0.03 0.03 0.04 0.03 0.02 0.01 0.01 0.01 0.01 0.02 0.02 0.01 0.02 0.02 0.02 0.02 0.02 0.03 0.03 0.03 0.02 0.02 0.02 0.02
0.01 0.01 0.01 0.02 0.03 0.03 0.02 0.01 0.01 0.01 0.02 0.05 0.06 0.04 0.03 0.02 0.03 0.03 0.03 0.03 0.02 0.02 0.02 0.02 0.02 0.02 0.02 0.03 0.03 0.03 0.03 0.03 0.03 0.03 0.02 0.02 0.02 0.02
0.01 0.02 0.02 0.03 0.03 0.02 0.02 0.01 0.01 0.01 0.02 0.04 0.05 0.05 0.04 0.03 0.02 0.02 0.02 0.02 0.02 0.02 0.01 0.02 0.01 0.01 0.02 0.03 0.03 0.03 0.03 0.03 0.03 0.02 0.02 0.02 0.01 0.01
0.01 0.02 0.02 0.02 0.02 0.01 0.01 0.01 0.01 0.01 0.01 0.03 0.05 0.05 0.04 0.03 0.03 0.03 0.02 0.02 0.02 0.02 0.01 0.01 0.01 0.01 0.01 0.01 0.03 0.03 0.02 0.02 0.02 0.01 0.01 0.01 0.01 0.01
0.02 0.02 0.02 0.01 0.01 0.01 0.01 0.01 0.01 0.01 0.01 0.03 0.04 0.05 0.04 0.03 0.04 0.04 0.02 0.02 0.02 0.02 0.01 0.02 0.02 0.01 0.01 0.01 0.02 0.02 0.03 0.02 0.02 0.01 0.01 0.01 0.01 0.02
0.01 0.01 0.02 0.01 0.01 0.01 0.01 0.00 0.00 0.01 0.01 0.02 0.03 0.03 0.04 0.04 0.03 0.05 0.05 0.04 0.03 0.03 0.03 0.03 0.03 0.03 0.02 0.01 0.01 0.01 0.02 0.02 0.02 0.01 0.01 0.00 0.01 0.01
0.01 0.01 0.01 0.01 0.01 0.02 0.01 0.01 0.01 0.01 0.01 0.02 0.03 0.02 0.03 0.04 0.04 0.04 0.06 0.07 0.05 0.03 0.03 0.04 0.04 0.03 0.02 0.01 0.01 0.01 0.01 0.01 0.01 0.01 0.01 0.00 0.00 0.01
0.01 0.01 0.01 0.01 0.01 0.02 0.02 0.02 0.02 0.01 0.01 0.01 0.01 0.01 0.02 0.04 0.04 0.03 0.04 0.07 0.06 0.04 0.04 0.04 0.03 0.03 0.02 0.01 0.01 0.01 0.01 0.00 0.01 0.01 0.01 0.01 0.01 0.01
0.00 0.00 0.01 0.01 0.01 0.01 0.02 0.02 0.02 0.02 0.01 0.01 0.01 0.02 0.02 0.03 0.04 0.03 0.03 0.05 0.07 0.05 0.04 0.04 0.02 0.02 0.01 0.01 0.01 0.01 0.00 0.00 0.00 0.00 0.01 0.01 0.01 0.01
0.00 0.00 0.00 0.01 0.01 0.01 0.01 0.02 0.03 0.02 0.01 0.01 0.02 0.02 0.02 0.03 0.03 0.02 0.02 0.02 0.03 0.04 0.05 0.04 0.03 0.03 0.02 0.02 0.01 0.01 0.00 0.00 0.00 0.00 0.01 0.01 0.01 0.01
0.00 0.00 0.00 0.00 0.00 0.00 0.01 0.02 0.03 0.02 0.02 0.02 0.02 0.02 0.02 0.03 0.02 0.02 0.02 0.03 0.03 0.03 0.04 0.04 0.04 0.04 0.03 0.02 0.01 0.00 0.00 0.00 0.01 0.01 0.01 0.01 0.01 0.01
0.00 0.00 0.00 0.00 0.01 0.01 0.01 0.01 0.01 0.01 0.01 0.02 0.02 0.02 0.01 0.02 0.02 0.02 0.02 0.02 0.02 0.03 0.03 0.02 0.02 0.02 0.01 0.01 0.00 0.00 0.00 0.00 0.01 0.01 0.01 0.00 0.01 0.01
0.01 0.00 0.00 0.00 0.01 0.02 0.03 0.01 0.00 0.01 0.01 0.01 0.01 0.01 0.01 0.01 0.01 0.01 0.01 0.01 0.01 0.01 0.01 0.01 0.00 0.00 0.00 0.00 0.00 0.00 0.00 0.00 0.00 0.00 0.01 0.00 0.01 0.01
0.01 0.01 0.01 0.01 0.02 0.01 0.03 0.03 0.01 0.00 0.00 0.00 0.00 0.01 0.00 0.00 0.00 0.00 0.00 0.01 0.01 0.01 0.00 0.00 0.00 0.00 0.00 0.00 0.00 0.00 0.00 0.00 0.01 0.01 0.01 0.00 0.00 0.01
0.01 0.01 0.01 0.01 0.02 0.01 0.00 0.01 0.01 0.00 0.00 0.00 0.00 0.00 0.00 0.00 0.00 0.00 0.01 0.01 0.01 0.01 0.00 0.00 0.00 0.00 0.00 0.00 0.00 0.00 0.00 0.00 0.00 0.00 0.01 0.01 0.00 0.00
0.01 0.01 0.02 0.01 0.01 0.00 0.00 0.00 0.00 0.00 0.00 0.00 0.00 0.01 0.01 0.01 0.01 0.01 0.02 0.02 0.02 0.01 0.01 0.00 0.00 0.00 0.00 0.00 0.00 0.00 0.00 0.00 0.00 0.00 0.00 0.00 0.00 0.00
0.01 0.01 0.01 0.01 0.00 0.00 0.00 0.00 0.00 0.00 0.00 0.00 0.00 0.00 0.01 0.01 0.02 0.03 0.03 0.03 0.02 0.01 0.01 0.01 0.00 0.00 0.00 0.00 0.00 0.00 0.00 0.00 0.00 0.00 0.00 0.00 0.00 0.00
0.01 0.01 0.01 0.01 0.01 0.01 0.01 0.01 0.01 0.01 0.00 0.00 0.00 0.00 0.01 0.01 0.02 0.03 0.03 0.02 0.02 0.01 0.01 0.01 0.01 0.01 0.00 0.00 0.00 0.00 0.00 0.00 0.00 0.00 0.00 0.00 0.00 0.00
0.00 0.01 0.01 0.01 0.01 0.01 0.01 0.01 0.01 0.01 0.00 0.00 0.00 0.00 0.01 0.01 0.02 0.03 0.02 0.02 0.02 0.01 0.01 0.01 0.01 0.01 0.01 0.00 0.00 0.00 0.00 0.00 0.00 0.00 0.00 0.00 0.00 0.00
MSLP
1016.11 1016.45 1016.86 1017.30 1017.75 1018.20 1018.61 1018.96 1019.25 1019.49 1019.67 1019.83 1019.97 1020.10 1020.22 1020.34 1020.44 1020.50 1020.52 1020.48 1020.38 1020.22 1020.01 1019.76 1019.50 1019.26 1019.04 1018.89 1018.80 1018.80 1018.89 1019.07 1019.34 1019.68 1020.08 1020.52 1020.97 1021.43
1016.17 1016.49 1016.86 1017.27 1017.68 1018.07 1018.44 1018.75 1019.02 1019.24 1019.43 1019.60 1019.77 1019.93 1020.10 1020.27 1020.41 1020.53 1020.60 1020.62 1020.58 1020.48 1020.35 1020.18 1020.00 1019.84 1019.70 1019.61 1019.57 1019.60 1019.70 1019.86 1020.07 1020.34 1020.63 1020.95 1021.28 1021.61
1016.38 1016.70 1017.05 1017.41 1017.78 1018.12 1018.43 1018.69 1018.91 1019.09 1019.26 1019.42 1019.58 1019.76 1019.95 1020.14 1020.31 1020.47 1020.58 1020.64 1020.65 1020.61 1020.54 1020.44 1020.33 1020.23 1020.15 1020.11 1020.12 1020.17 1020.27 1020.40 1020.57 1020.77 1020.99 1021.22 1021.45 1021.68
1016.76 1017.07 1017.40 1017.74 1018.06 1018.35 1018.59 1018.78 1018.93 1019.05 1019.16 1019.28 1019.41 1019.57 1019.75 1019.95 1020.14 1020.31 1020.45 1020.55 1020.60 1020.61 1020.58 1020.53 1020.47 1020.42 1020.39 1020.38 1020.41 1020.47 1020.56 1020.68 1020.82 1020.97 1021.14 1021.31 1021.47 1021.64
1017.27 1017.59 1017.91 1018.21 1018.48 1018.70 1018.86 1018.97 1019.03 1019.07 1019.10 1019.15 1019.23 1019.36 1019.51 1019.69 1019.88 1020.07 1020.23 1020.36 1020.44 1020.49 1020.50 1020.48 1020.46 1020.43 1020.42 1020.43 1020.46 1020.51 1020.59 1020.70 1020.81 1020.94 1021.08 1021.22 1021.36 1021.50
1017.89 1018.20 1018.49 1018.76 1018.98 1019.12 1019.19 1019.20 1019.16 1019.10 1019.04 1019.01 1019.02 1019.09 1019.21 1019.37 1019.56 1019.75 1019.93 1020.09 1020.20 1020.28 1020.32 1020.33 1020.32 1020.31 1020.29 1020.29 1020.31 1020.34 1020.40 1020.49 1020.59 1020.71 1020.84 1020.99 1021.13 1021.26
1018.55 1018.83 1019.09 1019.31 1019.45 1019.51 1019.49 1019.40 1019.26 1019.09 1018.94 1018.82 1018.77 1018.78 1018.87 1019.01 1019.19 1019.40 1019.60 1019.78 1019.92 1020.03 1020.09 1020.12 1020.11 1020.09 1020.06 1020.03 1020.02 1020.02 1020.05 1020.11 1020.20 1020.32 1020.45 1020.60 1020.76 1020.91
1019.16 1019.40 1019.61 1019.76 1019.83 1019.81 1019.69 1019.50 1019.27 1019.01 1018.78 1018.59 1018.48 1018.45 1018.51 1018.64 1018.83 1019.04 1019.27 1019.48 1019.65 1019.78 1019.86 1019.89 1019.88 1019.84 1019.77 1019.71 1019.65 1019.61 1019.60 1019.63 1019.70 1019.80 1019.94 1020.10 1020.27 1020.43
1019.68 1019.86 1020.00 1020.07 1020.07 1019.96 1019.77 1019.50 1019.19 1018.87 1018.58 1018.35 1018.20 1018.15 1018.20 1018.33 1018.52 1018.75 1019.00 1019.23 1019.42 1019.57 1019.66 1019.69 1019.66 1019.59 1019.49 1019.38 1019.27 1019.18 1019.12 1019.10 1019.13 1019.21 1019.34 1019.48 1019.65 1019.80
1020.06 1020.16 1020.22 1020.22 1020.14 1019.97 1019.72 1019.41 1019.06 1018.72 1018.41 1018.16 1018.01 1017.95 1018.00 1018.14 1018.34 1018.58 1018.84 1019.08 1019.28 1019.43 1019.51 1019.53 1019.48 1019.38 1019.24 1019.07 1018.91 1018.76 1018.64 1018.57 1018.55 1018.59 1018.67 1018.79 1018.92 1019.04
1020.30 1020.32 1020.31 1020.24 1020.10 1019.89 1019.61 1019.29 1018.95 1018.61 1018.32 1018.09 1017.95 1017.91 1017.97 1018.11 1018.31 1018.55 1018.80 1019.03 1019.22 1019.36 1019.42 1019.42 1019.34 1019.20 1019.02 1018.81 1018.58 1018.38 1018.20 1018.06 1017.98 1017.96 1017.98 1018.04 1018.11 1018.18
1020.43 1020.37 1020.30 1020.18 1020.01 1019.79 1019.52 1019.22 1018.91 1018.61 1018.36 1018.18 1018.07 1018.06 1018.13 1018.26 1018.45 1018.67 1018.89 1019.08 1019.24 1019.34 1019.37 1019.32 1019.21 1019.04 1018.82 1018.56 1018.29 1018.03 1017.80 1017.60 1017.45 1017.35 1017.29 1017.27 1017.27 1017.27
1020.49 1020.38 1020.26 1020.11 1019.94 1019.73 1019.49 1019.24 1018.99 1018.75 1018.56 1018.43 1018.36 1018.37 1018.43 1018.55 1018.71 1018.88 1019.04 1019.18 1019.28 1019.32 1019.31 1019.22 1019.07 1018.86 1018.61 1018.32 1018.02 1017.71 1017.43 1017.17 1016.95 1016.78 1016.65 1016.55 1016.46 1016.38
1020.53 1020.39 1020.24 1020.10 1019.94 1019.76 1019.57 1019.37 1019.19 1019.02 1018.89 1018.80 1018.77 1018.78 1018.83 1018.92 1019.02 1019.12 1019.21 1019.28 1019.30 1019.28 1019.20 1019.07 1018.88 1018.64 1018.37 1018.06 1017.74 1017.40 1017.08 1016.78 1016.51 1016.27 1016.07 1015.89 1015.73 1015.57
1020.59 1020.44 1020.30 1020.16 1020.02 1019.88 1019.74 1019.60 1019.47 1019.36 1019.27 1019.22 1019.19 1019.20 1019.22 1019.26 1019.29 1019.32 1019.33 1019.30 1019.25 1019.15 1019.01 1018.84 1018.62 1018.36 1018.08 1017.76 1017.43 1017.09 1016.75 1016.42 1016.11 1015.83 1015.57 1015.33 1015.11 1014.90
1020.69 1020.54 1020.41 1020.29 1020.18 1020.07 1019.96 1019.86 1019.77 1019.69 1019.62 1019.58 1019.55 1019.53 1019.51 1019.49 1019.46 1019.41 1019.33 1019.23 1019.09 1018.93 1018.74 1018.52 1018.28 1018.02 1017.73 1017.42 1017.10 1016.76 1016.43 1016.09 1015.76 1015.45 1015.15 1014.88 1014.62 1014.38
1020.82 1020.69 1020.57 1020.47 1020.36 1020.27 1020.17 1020.08 1019.99 1019.92 1019.85 1019.80 1019.75 1019.69 1019.63 1019.56 1019.47 1019.35 1019.20 1019.03 1018.84 1018.62 1018.39 1018.15 1017.89 1017.62 1017.34 1017.05 1016.74 1016.43 1016.10 1015.78 1015.45 1015.14 1014.83 1014.54 1014.27 1014.02
1020.96 1020.84 1020.74 1020.63 1020.52 1020.40 1020.29 1020.18 1020.07 1019.98 1019.89 1019.81 1019.73 1019.65 1019.56 1019.44 1019.30 1019.14 1018.95 1018.73 1018.50 1018.25 1017.99 1017.73 1017.47 1017.20 1016.93 1016.66 1016.38 1016.09 1015.79 1015.48 1015.17 1014.87 1014.57 1014.29 1014.02 1013.78
1021.08 1020.97 1020.85 1020.72 1020.59 1020.44 1020.28 1020.13 1019.98 1019.85 1019.73 1019.62 1019.52 1019.41 1019.30 1019.17 1019.01 1018.83 1018.62 1018.38 1018.13 1017.86 1017.59 1017.32 1017.05 1016.79 1016.53 1016.27 1016.01 1015.75 1015.48 1015.20 1014.92 1014.64 1014.36 1014.10 1013.85 1013.62
1021.14 1021.02 1020.88 1020.72 1020.54 1020.34 1020.13 1019.92 1019.72 1019.55 1019.39 1019.26 1019.14 1019.03 1018.92 1018.79 1018.64 1018.46 1018.25 1018.01 1017.76 1017.49 1017.21 1016.94 1016.67 1016.40 1016.15 1015.90 1015.66 1015.41 1015.17 1014.92 1014.67 1014.42 1014.18 1013.94 1013.72 1013.51
1021.11 1020.98 1020.81 1020.60 1020.36 1020.10 1019.83 1019.57 1019.33 1019.11 1018.93 1018.79 1018.67 1018.57 1018.47 1018.37 1018.24 1018.08 1017.89 1017.67 1017.42 1017.15 1016.87 1016.59 1016.31 1016.05 1015.79 1015.55 1015.32 1015.09 1014.87 1014.65 1014.44 1014.22 1014.01 1013.80 1013.60 1013.41
1020.98 1020.82 1020.61 1020.35 1020.06 1019.74 1019.42 1019.11 1018.84 1018.60 1018.41 1018.27 1018.17 1018.09 1018.02 1017.95 1017.85 1017.73 1017.56 1017.36 1017.11 1016.85 1016.56 1016.27 1015.99 1015.71 1015.45 1015.21 1014.99 1014.78 1014.58 1014.39 1014.21 1014.03 1013.85 1013.68 1013.50 1013.33
1020.73 1020.53 1020.29 1019.98 1019.65 1019.29 1018.93 1018.59 1018.30 1018.06 1017.87 1017.75 1017.67 1017.63 1017.60 1017.56 1017.49 1017.39 1017.24 1017.05 1016.81 1016.55 1016.25 1015.96 1015.66 1015.38 1015.12 1014.88 1014.67 1014.48 1014.31 1014.16 1014.01 1013.87 1013.73 1013.58 1013.43 1013.28
Thickness
5588 5588 5588 5587 5587 5586 5585 5584 5583 5583 5584 5584 5585 5587 5588 5590 5593 5595 5597 5599 5601 5603 5605 5606 5607 5608 5608 5609 5610 5611 5612 5612 5613 5613 5614 5613 5613 5612
5582 5582 5581 5581 5580 5579 5578 5577 5576 5576 5577 5578 5578 5579 5581 5583 5585 5587 5588 5590 5593 5595 5596 5598 5599 5599 5600 5601 5602 5603 5604 5604 5605 5605 5606 5606 5606 5605
5575 5575 5575 5574 5574 5573 5572 5571 5570 5569 5570 5571 5571 5572 5574 5576 5578 5579 5581 5583 5585 5587 5588 5590 5591 5592 5592 5594 5594 5595 5596 5597 5597 5598 5598 5599 5598 5598
5569 5569 5569 5569 5568 5567 5566 5565 5564 5563 5563 5564 5565 5565 5567 5569 5570 5572 5574 5576 5578 5580 5582 5583 5585 5585 5586 5587 5588 5589 5589 5590 5590 5590 5591 5591 5591 5591
5564 5563 5563 5563 5563 5562 5561 5560 5559 5559 5558 5558 5559 5559 5560 5562 5564 5566 5568 5570 5571 5573 5575 5577 5578 5579 5580 5581 5582 5583 5584 5584 5584 5584 5584 5585 5585 5584
5559 5559 5559 5559 5558 5557 5557 5556 5554 5554 5553 5554 5554 5554 5555 5557 5558 5560 5562 5563 5565 5567 5569 5570 5572 5573 5574 5575 5577 5577 5578 5578 5578 5578 5579 5579 5579 5579
5556 5556 5555 5555 5555 5554 5553 5552 5551 5550 5550 5549 5550 5550 5551 5553 5555 5556 5557 5558 5560 5561 5563 5565 5567 5568 5569 5571 5572 5573 5574 5574 5574 5574 5575 5575 5575 5574
5553 5553 5553 5552 5552 5551 5550 5550 5549 5548 5548 5547 5547 5547 5549 5551 5552 5553 5553 5555 5557 5558 5559 5561 5562 5564 5565 5567 5569 5570 5570 5571 5571 5571 5571 5571 5571 5571
5550 5551 5551 5550 5549 5549 5549 5549 5548 5547 5546 5545 5545 5547 5548 5550 5550 5551 5551 5552 5553 5555 5555 5558 5559 5561 5563 5564 5566 5567 5567 5568 5568 5568 5568 5568 5568 5567
5550 5549 5549 5548 5548 5548 5548 5548 5547 5546 5546 5545 5545 5547 5547 5548 5549 5550 5550 5549 5550 5552 5552 5555 5557 5559 5561 5562 5564 5564 5565 5565 5565 5565 5565 5565 5564 5564
5549 5549 5548 5548 5548 5547 5547 5547 5547 5547 5547 5546 5547 5547 5548 5549 5549 5548 5549 5549 5552 5553 5552 5553 5555 5556 5558 5560 5562 5563 5563 5563 5563 5563 5563 5563 5562 5561
5549 5549 5549 5548 5548 5548 5547 5547 5547 5547 5547 5548 5548 5548 5549 5550 5550 5550 5550 5550 5551 5552 5553 5553 5554 5554 5557 5559 5560 5561 5561 5562 5562 5561 5561 5561 5559 5558
5549 5549 5549 5549 5549 5549 5548 5547 5548 5548 5547 5547 5548 5549 5550 5551 5551 5551 5551 5552 5553 5554 5555 5553 5554 5553 5554 5556 5558 5559 5559 5559 5560 5560 5560 5559 5558 5556
5550 5551 5551 5551 5551 5550 5550 5550 5549 5548 5548 5548 5549 5550 5551 5552 5553 5553 5553 5553 5554 5555 5555 5553 5554 5553 5553 5554 5556 5558 5558 5557 5557 5557 5557 5557 5556 5554
5553 5553 5553 5553 5553 5553 5553 5552 5551 5551 5550 5550 5551 5552 5552 5553 5553 5554 5555 5555 5555 5556 5556 5555 5554 5553 5552 5553 5554 5555 5555 5556 5555 5554 5554 5554 5553 5552
5555 5555 5555 5555 5555 5555 5555 5555 5554 5554 5553 5553 5553 5553 5554 5553 5554 5554 5555 5555 5556 5558 5558 5556 5555 5553 5552 5552 5552 5553 5553 5552 5554 5553 5552 5552 5551 5550
5557 5558 5558 5558 5559 5559 5558 5558 5558 5556 5556 5555 5555 5555 5555 5555 5556 5555 5555 5555 5555 5557 5558 5557 5555 5553 5552 5552 5552 5553 5552 5551 5551 5550 5549 5550 5550 5548
5558 5560 5560 5560 5560 5561 5560 5561 5561 5560 5559 5558 5558 5557 5557 5557 5557 5557 5555 5555 5555 5556 5556 5556 5554 5553 5553 5553 5551 5552 5551 5551 5550 5548 5546 5546 5549 5548
5561 5562 5562 5562 5562 5562 5562 5562 5562 5562 5561 5560 5560 5559 5559 5559 5558 5558 5558 5557 5557 5557 5556 5555 5553 5552 5552 5554 5557 5551 5549 5550 5548 5547 5545 5544 5545 5547
5564 5565 5565 5565 5565 5564 5564 5563 5563 5563 5563 5562 5561 5561 5560 5560 5560 5559 5559 5558 5557 5557 5556 5555 5553 5551 5551 5552 5553 5552 5548 5546 5545 5545 5544 5543 5541 5540
5569 5568 5568 5567 5567 5567 5567 5566 5565 5565 5565 5564 5563 5562 5562 5560 5560 5560 5560 5557 5556 5556 5556 5557 5556 5552 5549 5547 5547 5550 5549 5546 5543 5540 5540 5538 5538 5537
5572 5571 5571 5570 5569 5569 5568 5568 5567 5567 5566 5565 5565 5564 5563 5562 5561 5561 5560 5559 5558 5557 5556 5556 5554 5550 5547 5546 5548 5549 5548 5546 5542 5538 5535 5533 5532 5533
5575 5574 5574 5573 5572 5571 5570 5570 5569 5569 5568 5567 5566 5565 5564 5563 5562 5561 5560 5558 5557 5556 5554 5553 5552 5549 5547 5546 5545 5545 5544 5543 5540 5538 5536 5533 5529 5526